Flag for U.S.A. Weather past 2 weeks in Bakersfield, California, U.S.A.

Now
58 °F

Sunny.


Feels Like: 57 °F
Forecast: 51 / 77 °F
Wind: 6 mph from South

Location: Meadows Field


UV Index: 5 (Moderate)

Visibility: 10 mi


Pressure: 30.08 "Hg

Humidity: 44%

Dew point: 36 °F

Location of BakersfieldLocation

Historic Weather in Bakersfield

°F

Bakersfield temperature yesterday

Maximum temperature yesterday: 72 °F (at 4:54 PM)
Minimum temperature yesterday: 48 °F (at 5:54 AM)
Average temperature yesterday: 60 °F

Past Weeks' High & Low Weather Summary

 TemperatureHumidityPressure
High90 °F (Apr 9, 2:54 PM)65% (Apr 14, 6:54 AM)30.11 "Hg (Apr 14, 6:54 AM)
Low48 °F (Apr 23, 5:54 AM)8% (Apr 9, 3:54 PM)29.71 "Hg (Apr 11, 5:54 PM)
Average71 °F35%29.92 "Hg
* Reported Apr 9 8:54 AM — Apr 24 8:54 AM, Bakersfield, Weather by CustomWeather, © 2014

Note: Actual official high and low records may vary slightly from our data, if they occured in-between our weather recording intervals... More about our weather records

Advertising

Historic Weather Conditions — Data for Previous 24 hours

 ConditionsComfort  
Time TempWeatherWind HumidityBarometerVisibility
8:54 AM
Apr 24
58 °FSunny.6 mph44%30.08 "Hg10 mi
7:54 AM56 °FSunny.6 mph46%30.08 "Hg10 mi
6:54 AM52 °FClear.5 mph55%30.06 "Hg10 mi
5:54 AM53 °FClear.5 mph52%30.04 "Hg10 mi
4:54 AM54 °FClear.5 mph43%30.03 "Hg10 mi
3:54 AM54 °FClear.No wind43%30.03 "Hg10 mi
2:54 AM56 °FClear.No wind42%30.03 "Hg10 mi
1:54 AM58 °FClear.No wind35%30.04 "Hg10 mi
12:54 AM60 °FClear.No wind38%30.04 "Hg10 mi
11:54 PM
Apr 23
62 °FClear.5 mph35%30.04 "Hg10 mi
10:54 PM64 °FClear.5 mph30%30.04 "Hg10 mi
9:54 PM64 °FClear.7 mph30%30.03 "Hg10 mi
8:54 PM65 °FClear.5 mph29%30.03 "Hg10 mi
7:54 PM66 °FSunny.7 mph27%30.01 "Hg10 mi
6:54 PM70 °FSunny.10 mph22%30.00 "Hg10 mi
5:54 PM72 °FSunny.9 mph19%30.00 "Hg10 mi
4:54 PM72 °FSunny.9 mph22%30.00 "Hg10 mi
3:54 PM70 °FSunny.No wind23%30.01 "Hg10 mi
2:54 PM69 °FSunny.7 mph26%30.03 "Hg10 mi
1:54 PM68 °FSunny.N/A30%30.05 "Hg10 mi
12:54 PM65 °FSunny.N/A34%30.06 "Hg10 mi
11:54 AM63 °FSunny.6 mph35%30.09 "Hg10 mi
10:54 AM60 °FSunny.7 mph41%30.10 "Hg10 mi
9:54 AM56 °FSunny.5 mph47%30.10 "Hg10 mi
Weather by CustomWeather, © 2014

See weather overview